Location: Gebenbach
(49.5378°N, 11.8735°E)
Time: 12:18:00
(UTC+00:00)

Okean O Rocket - Pass Details

Date: 29 October 2020
Orbit: 622 x 645 km, 98.2° (Epoch: 24 November)

Event Time Altitude Azimuth Distance (km) Brightness Sun altitude
Rises 17:22:33 0° 194° (SSW) 2,907 5.3 -14.7°
Reaches altitude 10° 17:25:01 10° 206° (SSW) 2,001 4.6 -15.1°
Maximum altitude 17:28:43 27° 265° (W) 1,208 3.9 -15.7°
Drops below altitude 10° 17:32:28 10° 324° (NW) 2,008 4.6 -16.3°
Sets 17:34:57 0° 337° (NNW) 2,918 5.3 -16.7°
